This is the latest recevied weather packets stored in our database for station/object WY7EM. If no packets are shown the sender has not sent any weather packets the latest 10 day(s).
| Time | Temp. | Humidity | Pressure | Rain* | Wind** | Luminosity | Snow |
|---|---|---|---|---|---|---|---|
| 1777426494 | 19.44° C | 21% | 1014.7 hPa | 0 mm | - | 23 W/m² | - |
| 1777426190 | 20° C | 20% | 1014.5 hPa | 0 mm | - | 27 W/m² | - |
| 1777425886 | 20° C | 21% | 1014.5 hPa | 0 mm | - | 28 W/m² | - |
| 1777425581 | 20° C | 20% | 1014.5 hPa | 0 mm | - | 35 W/m² | - |
| 1777425277 | 20° C | 20% | 1014.6 hPa | 0 mm | - | 44 W/m² | - |
| 1777424974 | 20° C | 20% | 1014.6 hPa | 0 mm | - | 49 W/m² | - |
| 1777424669 | 21.11° C | 19% | 1014.6 hPa | 0 mm | - | 66 W/m² | - |
| 1777424365 | 21.11° C | 19% | 1014.5 hPa | 0 mm | - | 101 W/m² | - |
| 1777424060 | 20.56° C | 19% | 1014.5 hPa | 0 mm | - | 104 W/m² | - |
| 1777423758 | 21.11° C | 19% | 1014.5 hPa | 0 mm | - | 115 W/m² | - |
| 1777423454 | 20.56° C | 19% | 1014.8 hPa | 0 mm | - | 143 W/m² | - |
| 1777423149 | 20.56° C | 20% | 1014.7 hPa | 0 mm | - | 105 W/m² | - |
| 1777422844 | 21.11° C | 19% | 1014.5 hPa | 0 mm | - | 139 W/m² | - |
| 1777422540 | 21.11° C | 19% | 1014.6 hPa | 0 mm | - | 211 W/m² | - |
| 1777422235 | 21.67° C | 19% | 1014.6 hPa | 0 mm | - | 249 W/m² | - |
| 1777421935 | 21.11° C | 19% | 1014.7 hPa | 0 mm | - | 285 W/m² | - |
| 1777421631 | 21.11° C | 19% | 1014.7 hPa | 0 mm | - | 310 W/m² | - |
| 1777421325 | 21.67° C | 19% | 1014.9 hPa | 0 mm | - | 268 W/m² | - |
| 1777421022 | 21.11° C | 19% | 1014.7 hPa | 0 mm | - | 351 W/m² | - |
| 1777420718 | 20.56° C | 19% | 1014.7 hPa | 0 mm | - | 390 W/m² | - |
| 1777420415 | 20.56° C | 19% | 1014.9 hPa | 0 mm | - | 360 W/m² | - |
| 1777420111 | 20.56° C | 20% | 1014.8 hPa | 0 mm | - | 282 W/m² | - |
| 1777419807 | 21.67° C | 19% | 1014.7 hPa | 0 mm | - | 424 W/m² | - |
| 1777419505 | 21.11° C | 19% | 1014.9 hPa | 0 mm | - | 426 W/m² | - |
| 1777419204 | 21.11° C | 19% | 1014.8 hPa | 0 mm | - | 420 W/m² | - |
* Rain latest hour (hover to see other rain measurements)
** Current wind speed in m/s (hover to see current wind gust speed)